Airfield :
LOGIN :

Register | Disclaimer

   EN    FR    IT 

 










Legend :    VFR   Marginal VFR   IFR   Intensive IFR   Very Intensive IFR
Visi :
Ceiling :
>= 8 km
>= 3000ft
5 to 8 km
1000 to 3000 ft
1500m to 5 km
500 to 1000 ft
800 to 1500m
200 to 500 ft
< 800m
< 200 ft
Symbols :   Thunderstorms  Fog  Heavy snow  Heavy precipitations  Wind > 20 kt
SIGMETs :     Misc.  Thunderstorms  Icing  Turbulence  Mountain Waves  Volcanic Ashes







- Airport Elevation : 1475 ft


LSZC - Buochs Stans

CURRENT METAR :
  • 242050Z AUTO 26004KT 230V300 CAVOK 15/09 Q1017

EXPIRED METARs :
  • 242020Z AUTO 27005KT CAVOK 15/09 Q1017
  • 241950Z AUTO 30004KT 260V340 CAVOK 15/09 Q1017
  • 241920Z AUTO 22005KT 160V310 CAVOK 16/10 Q1017
  • 241850Z AUTO 26005KT 230V310 CAVOK 16/10 Q1017
  • 241820Z AUTO 27005KT CAVOK 16/11 Q1016

TAF TAF LSZC
Valid from the 24 at 15:00 until the 25 at 00:00 UTC


241425Z 2415/2424 10006KT CAVOK
TEMPO 2415/2418 9999 FEW040
No reported NOTAMs for that airfield.



MET'MAP, your aeronautical weather chart ! - Copyright ORBIFLY December 2007 - Disclaimer

ORBIFLY MET'MAP TEAM :

Programming & Development : Alexandra Zaïnal
Concept & Development : Baudouin d'Aumeries
Co-Development & Prog : Marc-Olivier Méhu
Technical & hardware support : Manuel Goepfert

Contact : metmap@orbifly.com




SOURCES & CREDITS :

   NOAA